• In France
  • List of Countries
  • For 7 days
  • Water Temperature
  • Satellite Maps
  • Weather Map
  • Weather Widgets
  • user-avatar
    Login

    Hourly Weather Hoeryŏng

    Today, 13 December, Wednesday

    Time Temperature Precipitation Wind Pressure Humidity
    00:00 -12°C° 0 mm 2 mps 765 mmHg 54%
    01:00 -12°C° 0 mm 2 mps 765 mmHg 54%
    02:00 -13°C° 0 mm 2 mps 766 mmHg 53%
    03:00 -13°C° 0 mm 2 mps 766 mmHg 53%
    04:00 -13°C° 0 mm 2 mps 766 mmHg 54%
    05:00 -14°C° 0 mm 3 mps 766 mmHg 54%
    06:00 -13°C° 0 mm 3 mps 766 mmHg 51%
    07:00 -13°C° 0 mm 3 mps 766 mmHg 48%
    08:00 -13°C° 0 mm 3 mps 766 mmHg 44%
    09:00 -12°C° 0 mm 3 mps 766 mmHg 41%
    10:00 -9°C° 0 mm 3 mps 766 mmHg 37%
    11:00 -8°C° 0 mm 3 mps 766 mmHg 34%
    12:00 -8°C° 0 mm 3 mps 766 mmHg 35%
    13:00 -7°C° 0 mm 3 mps 766 mmHg 36%
    14:00 -4°C° 0 mm 1 mps 766 mmHg 36%
    15:00 -7°C° 0 mm 2 mps 766 mmHg 41%
    16:00 -8°C° 0 mm 2 mps 766 mmHg 46%
    17:00 -9°C° 0 mm 2 mps 766 mmHg 51%
    18:00 -8°C° 0 mm 1 mps 766 mmHg 53%
    19:00 -8°C° 0 mm 1 mps 766 mmHg 55%
    20:00 -8°C° 0 mm 1 mps 766 mmHg 56%
    21:00 -9°C° 0 mm 1 mps 767 mmHg 58%
    22:00 -9°C° 0 mm 1 mps 767 mmHg 59%
    23:00 -9°C° 0 mm 1 mps 767 mmHg 60%

    Tomorrow, 14 December, Thursday

    Time Temperature Precipitation Wind Pressure Humidity
    00:00 -9°C° 0 mm 1 mps 767 mmHg 61%
    01:00 -9°C° 0 mm 1 mps 767 mmHg 62%
    02:00 -9°C° 0 mm 1 mps 767 mmHg 63%
    03:00 -9°C° 0 mm 1 mps 767 mmHg 63%
    04:00 -9°C° 0 mm 1 mps 767 mmHg 63%
    05:00 -10°C° 0 mm 1 mps 767 mmHg 63%
    06:00 -9°C° 0 mm 1 mps 767 mmHg 60%
    07:00 -8°C° 0 mm 1 mps 767 mmHg 57%
    08:00 -8°C° 0 mm 1 mps 767 mmHg 54%
    09:00 -6°C° 0 mm 1 mps 767 mmHg 48%
    10:00 -4°C° 0 mm 1 mps 766 mmHg 42%
    11:00 -2°C° 0 mm 1 mps 766 mmHg 37%
    12:00 -3°C° 0 mm 0 mps 766 mmHg 36%
    13:00 -2°C° 0 mm 0 mps 765 mmHg 35%
    14:00 -2°C° 0 mm 0 mps 765 mmHg 34%
    15:00 -2°C° 0 mm 0 mps 765 mmHg 38%
    16:00 -3°C° 0 mm 0 mps 765 mmHg 42%
    17:00 -4°C° 0 mm 0 mps 765 mmHg 47%
    18:00 -3°C° 0 mm 1 mps 765 mmHg 47%
    19:00 -3°C° 0 mm 1 mps 765 mmHg 48%
    20:00 -3°C° 0 mm 1 mps 765 mmHg 49%
    21:00 -3°C° 0 mm 1 mps 765 mmHg 50%
    22:00 -5°C° 0 mm 0 mps 765 mmHg 50%
    23:00 -5°C° 0 mm 0 mps 765 mmHg 51%

    Day after tomorrow, 15 December, Friday

    Time Temperature Precipitation Wind Pressure Humidity
    00:00 -5°C° 0 mm 0 mps 765 mmHg 51%
    01:00 -5°C° 0 mm 0 mps 765 mmHg 52%
    02:00 -6°C° 0 mm 0 mps 765 mmHg 52%
    03:00 -6°C° 0 mm 1 mps 764 mmHg 52%
    04:00 -6°C° 0 mm 1 mps 764 mmHg 52%
    05:00 -6°C° 0 mm 1 mps 764 mmHg 52%
    06:00 -6°C° 0 mm 1 mps 764 mmHg 49%
    07:00 -5°C° 0 mm 0 mps 764 mmHg 47%
    08:00 -5°C° 0 mm 0 mps 764 mmHg 44%
    09:00 -3°C° 0 mm 0 mps 764 mmHg 39%
    10:00 -1°C° 0 mm 1 mps 764 mmHg 34%
    11:00 0°C° 0 mm 1 mps 764 mmHg 29%
    12:00 +1°C° 0 mm 1 mps 763 mmHg 32%
    13:00 +1°C° 0 mm 1 mps 763 mmHg 36%
    14:00 +2°C° 0 mm 1 mps 762 mmHg 39%
    15:00 +1°C° 0 mm 1 mps 762 mmHg 44%
    16:00 0°C° 0 mm 1 mps 762 mmHg 48%
    17:00 -1°C° 0 mm 1 mps 762 mmHg 53%
    18:00 -1°C° 0.1 mm 1 mps 762 mmHg 56%
    19:00 -1°C° 0.1 mm 1 mps 762 mmHg 60%
    20:00 -1°C° 0.1 mm 1 mps 762 mmHg 64%
    21:00 -3°C° 0.1 mm 2 mps 762 mmHg 69%
    22:00 -3°C° 0.1 mm 2 mps 762 mmHg 75%
    23:00 -4°C° 0.1 mm 2 mps 762 mmHg 80%

    16 December, Saturday

    Time Temperature Precipitation Wind Pressure Humidity
    00:00 -4°C° 0 mm 2 mps 762 mmHg 77%
    01:00 -6°C° 0 mm 3 mps 762 mmHg 75%
    02:00 -6°C° 0 mm 3 mps 762 mmHg 73%
    03:00 -7°C° 0 mm 3 mps 762 mmHg 68%
    04:00 -7°C° 0 mm 3 mps 762 mmHg 64%
    05:00 -8°C° 0 mm 3 mps 762 mmHg 60%
    06:00 -8°C° 0 mm 3 mps 762 mmHg 55%
    07:00 -8°C° 0 mm 3 mps 763 mmHg 50%
    08:00 -8°C° 0 mm 3 mps 763 mmHg 45%
    09:00 -7°C° 0 mm 3 mps 763 mmHg 39%
    10:00 -6°C° 0 mm 3 mps 762 mmHg 34%
    11:00 -5°C° 0 mm 3 mps 762 mmHg 29%
    12:00 -5°C° 0 mm 3 mps 761 mmHg 31%
    13:00 -5°C° 0 mm 4 mps 761 mmHg 34%
    14:00 -5°C° 0 mm 4 mps 760 mmHg 36%
    15:00 -7°C° 0 mm 4 mps 761 mmHg 40%
    16:00 -7°C° 0 mm 4 mps 761 mmHg 45%
    17:00 -8°C° 0 mm 4 mps 762 mmHg 49%
    18:00 -8°C° 0 mm 4 mps 762 mmHg 50%
    19:00 -8°C° 0 mm 5 mps 763 mmHg 51%
    20:00 -10°C° 0 mm 5 mps 763 mmHg 52%
    21:00 -10°C° 0 mm 5 mps 763 mmHg 51%
    22:00 -11°C° 0 mm 5 mps 763 mmHg 49%
    23:00 -12°C° 0 mm 5 mps 764 mmHg 48%

    17 December, Sunday

    Time Temperature Precipitation Wind Pressure Humidity
    00:00 -12°C° 0 mm 5 mps 764 mmHg 48%
    01:00 -12°C° 0 mm 5 mps 764 mmHg 49%
    02:00 -12°C° 0 mm 4 mps 764 mmHg 49%
    03:00 -12°C° 0 mm 4 mps 764 mmHg 49%
    04:00 -12°C° 0 mm 4 mps 764 mmHg 49%
    05:00 -12°C° 0 mm 3 mps 764 mmHg 49%
    06:00 -12°C° 0 mm 3 mps 765 mmHg 47%
    07:00 -12°C° 0 mm 3 mps 765 mmHg 44%
    08:00 -12°C° 0 mm 3 mps 765 mmHg 42%
    09:00 -10°C° 0 mm 3 mps 765 mmHg 39%
    10:00 -9°C° 0 mm 4 mps 765 mmHg 37%
    11:00 -8°C° 0 mm 4 mps 765 mmHg 34%
    12:00 -8°C° 0 mm 4 mps 765 mmHg 36%
    13:00 -7°C° 0 mm 4 mps 764 mmHg 38%
    14:00 -7°C° 0 mm 4 mps 764 mmHg 39%
    15:00 -7°C° 0 mm 3 mps 764 mmHg 44%
    16:00 -7°C° 0 mm 3 mps 764 mmHg 49%
    17:00 -7°C° 0 mm 2 mps 764 mmHg 53%
    18:00 -6°C° 0 mm 1 mps 764 mmHg 54%
    19:00 -6°C° 0 mm 1 mps 765 mmHg 55%
    20:00 -6°C° 0 mm 1 mps 765 mmHg 56%
    21:00 -6°C° 0 mm 1 mps 764 mmHg 57%
    22:00 -6°C° 0 mm 1 mps 764 mmHg 58%
    23:00 -6°C° 0 mm 1 mps 764 mmHg 58%

    18 December, Monday

    Time Temperature Precipitation Wind Pressure Humidity
    00:00 -6°C° 0 mm 1 mps 764 mmHg 61%
    01:00 -4°C° 0 mm 1 mps 764 mmHg 63%
    02:00 -4°C° 0 mm 1 mps 764 mmHg 65%
    03:00 -4°C° 0 mm 1 mps 763 mmHg 67%
    04:00 -4°C° 0 mm 1 mps 763 mmHg 68%
    05:00 -4°C° 0 mm 1 mps 762 mmHg 70%
    06:00 -4°C° 0 mm 1 mps 762 mmHg 71%
    07:00 -4°C° 0 mm 1 mps 763 mmHg 72%
    08:00 -3°C° 0 mm 1 mps 763 mmHg 73%
    09:00 -2°C° 0.1 mm 1 mps 762 mmHg 74%
    10:00 -3°C° 0.1 mm 2 mps 762 mmHg 75%
    11:00 -1°C° 0.1 mm 2 mps 762 mmHg 76%
    12:00 -1°C° 0.3 mm 2 mps 761 mmHg 79%
    13:00 +1°C° 0.3 mm 2 mps 761 mmHg 81%
    14:00 0°C° 0.3 mm 3 mps 760 mmHg 83%
    15:00 0°C° 0.2 mm 3 mps 760 mmHg 83%
    16:00 0°C° 0.2 mm 3 mps 760 mmHg 83%
    17:00 0°C° 0.2 mm 3 mps 760 mmHg 82%
    18:00 -1°C° 0.1 mm 3 mps 760 mmHg 82%
    19:00 -1°C° 0.1 mm 3 mps 760 mmHg 82%
    20:00 -2°C° 0.1 mm 2 mps 760 mmHg 81%
    21:00 -2°C° 0 mm 2 mps 760 mmHg 80%
    22:00 -3°C° 0 mm 2 mps 760 mmHg 78%
    23:00 -4°C° 0 mm 2 mps 761 mmHg 76%
    Show more